TIME,DELAY(SENSOR),PRES,OXYGEN,RAWTEMP,T(OPTODE),TCPHASE,FLUOR,BETA(BETA700),BETA(BETA412),BETA(BETA440),CDOM,C(CSC),ED(ED411.90),ED(ED443.80),ED(ED489.40),ED(ED554.70),LU(LU412.20),LU(LU443.80),LU(LU489.40),LU(LU555.00),COMP,TILTX,TILTY,CHECK
1343688928,5805,879.9000244140625000,169.2920074462890600,457.4729919433594000,9.2056035995483400,39.7885894775390600,51,105,101,82,75,15350,2147450185,2147792283,2147581202,2147822921,2147310116,2147454592,2147755254,2148273408,1510,6,13,25533
1343692524,5807,8.8000001907348630,211.4886932373047000,523.6348876953125000,7.1383628845214840,38.1935615539550800,51,109,103,81,76,15353,2147437165,2147796690,2147586441,2147832210,2147307885,2147447561,2147763538,2148280173,434,6,14,15670
1343696124,5801,11.0000000000000000,218.0041961669922000,531.1875000000000000,6.9004859924316410,37.9551582336425800,51,103,103,81,75,15350,2147434084,2147798436,2147586678,2147829824,2147306834,2147451730,2147769819,2148277568,145,6,15,36624
1343699724,5803,1003.0000000000000000,219.7523040771484400,533.9738769531250000,6.8126177787780760,37.9064292907714840,51,104,103,83,75,15348,2147435675,2147796553,2147584950,2147831305,2147306733,2147451547,2147769746,2148280155,3576,6,14,57026
1343703324,5804,13.8000001907348630,220.3822021484375000,533.0958862304688000,6.8403110504150390,37.8549995422363300,52,104,102,82,77,15346,2147433938,2147795611,2147588123,2147833956,2147307712,2147449142,2147766573,2148279762,166,6,14,43111
1343706924,5804,1329.0000000000000000,221.3363952636718800,535.3093872070312000,6.7704830169677730,37.8419494628906250,51,106,102,82,75,15346,2147434697,2147798537,2147585188,2147832338,2147305234,2147451611,2147764589,2148278646,3227,6,15,14630
1343710524,5803,10.3000001907348630,221.5863952636718800,535.9780883789062000,6.7493782043457030,37.8405113220214840,51,104,102,82,76,15341,2147433910,2147797129,2147588873,2147835364,2147309211,2147448612,2147766646,2148279972,3459,6,14,37820
1343714124,5804,1243.0000000000000000,221.1441955566406200,534.0526123046875000,6.8101348876953125,37.8304100036621100,51,102,102,82,75,15341,2147435410,2147796480,2147585792,2147833572,2147309037,2147448201,2147768457,2148282194,3545,6,15,39630
1343717724,5804,12.3000001907348630,222.6481933593750000,535.2573242187500000,6.7721271514892580,37.7686386108398440,51,104,103,82,76,15341,2147437092,2147800704,2147587904,2147834834,2147309732,2147446226,2147770505,2148280475,3190,6,14,60272
1343721324,5804,11.8999996185302730,222.2740020751953000,535.5755004882812000,6.7620849609375000,37.7948112487793000,51,106,103,82,75,15340,2147435200,2147799542,2147586925,2147832694,2147309248,2147452598,2147766500,2148277705,149,6,14,52720
1343724924,5802,10.8000001907348630,224.3609008789062500,537.4149780273438000,6.7040228843688965,37.7126884460449200,51,107,102,81,77,15331,2147434816,2147800054,2147587026,2147833947,2147305581,2147448301,2147766930,2148281024,2853,6,14,19748
1343728524,5806,11.6000003814697270,224.9936981201172000,539.0808105468750000,6.6514210700988770,37.7083702087402340,51,106,101,82,77,15329,2147435410,2147798436,2147588297,2147833499,2147306898,2147450294,2147766454,2148281764,404,6,15,29684
1343732124,5807,10.0000000000000000,224.8977050781250000,539.3342285156250000,6.6434149742126465,37.7177581787109400,52,103,102,82,76,15325,2147433846,2147801782,2147583140,2147833252,2147304301,2147448100,2147765796,2148282002,67,6,14,5597
1343735724,5805,11.0000000000000000,225.8601989746093800,539.4802246093750000,6.6388030052185060,37.6679992675781250,52,105,102,83,76,15327,2147435364,2147796763,2147586112,2147833069,2147304630,2147451556,2147769444,2148278016,76,6,14,13119
1343739324,5805,1022.0000000000000000,225.4996032714843800,539.3536987304688000,6.6428008079528810,37.6851005554199200,51,103,102,83,77,15327,2147432475,2147798875,2147586797,2147834980,2147303360,2147448027,2147766436,2148280146,36,6,14,14966
1343742924,5804,1230.0000000000000000,225.9004974365234400,538.1666259765625000,6.6802921295166020,37.6420402526855500,51,106,102,83,75,15325,2147435437,2147800246,2147584987,2147831460,2147305828,2147447597,2147765165,2148280502,9,6,14,25516
1343746524,5803,1264.0000000000000000,223.4358062744140600,537.4304199218750000,6.7035350799560550,37.7637901306152340,51,103,101,82,77,15326,2147433984,2147798692,2147586889,2147834441,2147309632,2147449856,2147768100,2148280109,3523,6,14,33970
1343750124,5806,10.3999996185302730,222.4792022705078000,536.3342285156250000,6.7381381988525390,37.7972297668457000,51,110,102,82,75,15309,2147435977,2147800576,2147584950,2147831963,2147306148,2147454080,2147767250,2148283026,24,6,14,7262
1343753724,5805,1287.0000000000000000,221.9214019775390600,535.6188964843750000,6.7607150077819820,37.8147010803222660,51,107,102,82,76,15311,2147437120,2147797376,2147585088,2147829549,2147307419,2147448484,2147766537,2148280630,467,6,14,20683
1343757324,5802,12.0000000000000000,222.0838928222656200,536.4735107421875000,6.7337422370910645,37.8214302062988300,51,104,101,82,75,15309,2147433298,2147796653,2147583113,2147829824,2147306404,2147447350,2147762285,2148281353,3484,6,14,3619
1343760924,5805,10.6000003814697270,224.6555938720703000,537.9182128906250000,6.6881370544433590,37.7054710388183600,51,104,101,81,76,15302,2147433627,2147796864,2147583433,2147832173,2147304201,2147448146,2147766747,2148277522,795,6,14,49192
1343764524,5805,13.6999998092651370,224.3343963623047000,537.0994873046875000,6.7139840126037600,37.7084808349609400,51,104,103,81,76,15300,2147432064,2147797714,2147586925,2147832301,2147302976,2147445650,2147770313,2148280374,329,6,14,36789
1343768124,5801,13.6000003814697270,224.6033935546875000,537.3347167968750000,6.7065582275390625,37.6978683471679700,50,104,102,82,76,15298,2147432658,2147797833,2147585316,2147831990,2147305069,2147447186,2147765138,2148277851,717,6,14,45613
1343771724,5805,1012.0000000000000000,222.4626007080078000,537.5352783203125000,6.7002239227294920,37.8197593688964840,51,104,103,83,77,15276,2147432512,2147795684,2147586249,2147829677,2147306230,2147450934,2147765312,2148278500,911,6,14,52349
1343775324,5804,1107.0000000000000000,218.4671020507812500,531.4105224609375000,6.8934569358825680,37.9328804016113300,51,104,108,82,76,15313,2147434651,2147795675,2147582784,2147831177,2147305307,2147448054,2147766848,2148276571,107,6,14,6169
1343778924,5804,10.3000001907348630,217.2380981445312500,530.4028930664062000,6.9252171516418460,37.9843482971191400,52,104,103,82,77,15312,2147435456,2147799369,2147585508,2147831067,2147300937,2147453997,2147767314,2148276964,189,6,14,46571
1343782524,5803,10.5000000000000000,218.5567932128906200,530.7612304687500000,6.9139251708984375,37.9161186218261700,50,107,102,81,77,15313,2147434075,2147797558,2147585481,2147829604,2147308315,2147451968,2147768841,2148279588,3259,6,14,5280
1343786124,5805,1019.0000000000000000,217.8067016601562500,530.8720703125000000,6.9104270935058590,37.9603118896484400,51,103,100,83,75,15314,2147433453,2147796315,2147585161,2147830189,2147307136,2147449828,2147765906,2148283117,3293,6,14,43230
1343789724,5804,11.5000000000000000,216.0236053466797000,530.3480834960938000,6.9269428253173830,38.0524711608886700,51,105,102,84,75,15316,2147436132,2147799488,2147584091,2147832978,2147305901,2147448182,2147764626,2148281728,3570,6,15,26161
1343793324,5806,1048.0000000000000000,216.4434967041015600,528.8911132812500000,6.9728569984436035,38.0018386840820300,51,105,102,82,75,15314,2147431945,2147795821,2147586605,2147833892,2147305014,2147455515,2147762925,2148277138,90,6,14,63002
1343796924,5804,1030.0000000000000000,216.8607025146484400,529.2902832031250000,6.9602789878845215,37.9855613708496100,52,106,102,82,77,15313,2147434130,2147800576,2147586468,2147833947,2147304822,2147448960,2147767533,2148277814,105,6,14,46546
1343800524,5803,1074.0000000000000000,216.8871002197265600,530.5103149414062000,6.9218311309814450,38.0059204101562500,52,105,103,82,77,15314,2147437083,2147800274,2147585654,2147833572,2147306212,2147448749,2147768292,2148279323,47,6,14,32984
1343804124,5803,10.6999998092651370,218.3495941162109400,532.2277221679688000,6.8676891326904300,37.9544601440429700,51,103,103,83,76,15316,2147433920,2147796452,2147585334,2147831542,2147304512,2147445970,2147766153,2148283510,3508,6,15,10835
1343807724,5804,1108.0000000000000000,217.7613067626953000,531.2543945312500000,6.8983759880065920,37.9695816040039060,51,106,103,82,76,15314,2147434998,2147798656,2147586011,2147834377,2147305526,2147447488,2147768877,2148280740,168,6,14,3433
1343811324,5806,1088.0000000000000000,217.1248931884765600,530.8582763671875000,6.9108638763427730,37.9983406066894500,51,107,103,82,76,15310,2147438555,2147800393,2147587355,2147831378,2147308361,2147449060,2147767689,2148279305,8,6,14,10093
1343814924,5805,10.8999996185302730,218.4940032958984400,532.1373901367188000,6.8705391883850100,37.9438705444335940,51,107,101,83,76,15310,2147433152,2147800813,2147588224,2147830729,2147305078,2147451145,2147765650,2148280475,35,6,14,50951
1343818524,5800,10.1999998092651370,217.2958068847656200,531.0648193359375000,6.9043540954589840,37.9925193786621100,51,103,102,82,76,15308,2147433883,2147796342,2147587977,2147831040,2147305380,2147452224,2147763163,2148280667,3367,6,14,51284
1343822124,5806,1116.0000000000000000,217.4700012207031200,532.1984252929688000,6.8686141967773440,38.0030212402343750,50,103,103,82,76,15306,2147435593,2147799497,2147585252,2147829933,2147303844,2147450614,2147764324,2148279094,9,6,14,62057
1343825724,5805,10.5000000000000000,216.9266967773437500,532.5623168945312000,6.8571381568908690,38.0407409667968750,51,104,102,82,75,15307,2147434898,2147796626,2147586450,2147833270,2147302281,2147445284,2147765714,2148279808,303,6,14,63849
1343829056,5802,10.1000003814697270,218.2257995605468800,532.8901977539062000,6.8467979431152340,37.9727592468261700,50,104,101,83,76,15261,2147438189,2147795492,2147587245,2147833042,2147304329,2147451593,2147763190,2148283638,221,6,14,13595
